﻿_id,日時,平均風速(m/s),平均風向,最大瞬間風速(m/s),最大風速時風向,気温(℃),湿度(%),10分間移動積算雨量(mm),1時間移動積算雨量(mm),日雨量(mm),累計雨量(mm)
1,2022-04-11T00:00:00,0.7,南東,1.3,東北東,14.9,63.4,0,0,0,0
2,2022-04-11T00:01:00,0.7,南東,1.5,南南西,15,62.5,0,0,0,0
3,2022-04-11T00:02:00,0.7,南南東,1.6,南南西,14.7,63,0,0,0,0
4,2022-04-11T00:03:00,0.7,南南東,1.6,南南西,14.5,63.9,0,0,0,0
5,2022-04-11T00:04:00,0.7,南,1.6,南南西,14.4,64,0,0,0,0
6,2022-04-11T00:05:00,0.7,南,1.6,南南西,14.3,64.3,0,0,0,0
7,2022-04-11T00:06:00,0.8,南,1.6,南南西,14.3,64.6,0,0,0,0
8,2022-04-11T00:07:00,0.8,南,1.9,南,14.2,64.8,0,0,0,0
9,2022-04-11T00:08:00,0.9,南,2,南西,14.1,65.3,0,0,0,0
10,2022-04-11T00:09:00,0.9,南,2,南西,14,65.9,0,0,0,0
11,2022-04-11T00:10:00,0.9,南,2,南西,14,66.2,0,0,0,0
12,2022-04-11T00:11:00,0.9,南,2,南西,14.1,66.3,0,0,0,0
13,2022-04-11T00:12:00,0.9,南,2,南西,13.9,66.4,0,0,0,0
14,2022-04-11T00:13:00,0.9,南,2,南西,13.9,66.7,0,0,0,0
15,2022-04-11T00:14:00,0.8,南,2,南西,14,66.9,0,0,0,0
16,2022-04-11T00:15:00,0.8,南,2,南西,14,66.9,0,0,0,0
17,2022-04-11T00:16:00,0.7,南,2,南西,14,66.9,0,0,0,0
18,2022-04-11T00:17:00,0.7,南,2,南西,14.1,67.1,0,0,0,0
19,2022-04-11T00:18:00,0.6,南南東,1.7,南南東,14.2,66.9,0,0,0,0
20,2022-04-11T00:19:00,0.5,南南東,1.7,南南東,14.2,66.7,0,0,0,0
21,2022-04-11T00:20:00,0.5,南東,1.7,南南東,14.2,66.6,0,0,0,0
22,2022-04-11T00:21:00,0.5,東南東,1.7,南南東,14.2,66.4,0,0,0,0
23,2022-04-11T00:22:00,0.5,東南東,1.4,南南東,14.2,66.3,0,0,0,0
24,2022-04-11T00:23:00,0.5,東,1,東北東,14.1,66.3,0,0,0,0
25,2022-04-11T00:24:00,0.5,東,1.2,東北東,14.1,66.6,0,0,0,0
26,2022-04-11T00:25:00,0.6,東北東,1.2,東北東,14.1,66.8,0,0,0,0
27,2022-04-11T00:26:00,0.6,東北東,1.2,東北東,14.1,66.8,0,0,0,0
28,2022-04-11T00:27:00,0.6,東北東,1.2,東北東,14,66.9,0,0,0,0
29,2022-04-11T00:28:00,0.6,東北東,1.2,東北東,14.1,66.9,0,0,0,0
30,2022-04-11T00:29:00,0.7,北東,1.2,東北東,14.1,66.7,0,0,0,0
31,2022-04-11T00:30:00,0.7,北東,1.2,東北東,14.1,66.9,0,0,0,0
32,2022-04-11T00:31:00,0.7,北東,1.2,東北東,14.1,67,0,0,0,0
33,2022-04-11T00:32:00,0.6,北東,1.2,東北東,14.1,67.3,0,0,0,0
34,2022-04-11T00:33:00,0.6,北東,1.2,東北東,14,67.4,0,0,0,0
35,2022-04-11T00:34:00,0.5,北東,1.1,東北東,14.1,67.5,0,0,0,0
36,2022-04-11T00:35:00,0.5,北東,1,北東,14.1,67.3,0,0,0,0
37,2022-04-11T00:36:00,0.5,東北東,1,北東,14.1,67.1,0,0,0,0
38,2022-04-11T00:37:00,0.5,東北東,1,北東,14.1,66.8,0,0,0,0
39,2022-04-11T00:38:00,0.5,東北東,1,北東,14.2,66.6,0,0,0,0
40,2022-04-11T00:39:00,0.5,東,1,東南東,14.2,66.3,0,0,0,0
41,2022-04-11T00:40:00,0.5,東,1.1,南東,14.2,66.1,0,0,0,0
42,2022-04-11T00:41:00,0.4,東,1.1,南東,14.2,65.6,0,0,0,0
43,2022-04-11T00:42:00,0.5,東南東,1.1,南東,14.2,65.5,0,0,0,0
44,2022-04-11T00:43:00,0.5,東南東,1.1,南東,14.1,65.2,0,0,0,0
45,2022-04-11T00:44:00,0.5,東南東,1.1,南東,14,65.4,0,0,0,0
46,2022-04-11T00:45:00,0.6,東南東,1.2,南,14,65.6,0,0,0,0
47,2022-04-11T00:46:00,0.6,東南東,1.2,南,13.8,66.3,0,0,0,0
48,2022-04-11T00:47:00,0.6,南東,1.2,南,13.8,67.1,0,0,0,0
49,2022-04-11T00:48:00,0.6,南東,1.8,南南東,13.8,67.3,0,0,0,0
50,2022-04-11T00:49:00,0.6,南東,1.8,南南東,13.7,67.5,0,0,0,0
51,2022-04-11T00:50:00,0.7,南南東,1.8,南南東,13.6,67.9,0,0,0,0
52,2022-04-11T00:51:00,0.7,南南東,1.8,南南東,13.6,68.1,0,0,0,0
53,2022-04-11T00:52:00,0.7,南南東,1.8,南南東,13.5,68.5,0,0,0,0
54,2022-04-11T00:53:00,0.7,南,1.8,南南東,13.5,68.8,0,0,0,0
55,2022-04-11T00:54:00,0.7,南,1.8,南南東,13.6,68.8,0,0,0,0
56,2022-04-11T00:55:00,0.6,南,1.8,南南東,13.6,68.6,0,0,0,0
57,2022-04-11T00:56:00,0.6,南,1.8,南南東,13.7,69,0,0,0,0
58,2022-04-11T00:57:00,0.6,南,1.8,南南東,13.7,68.7,0,0,0,0
59,2022-04-11T00:58:00,0.5,南南東,1.4,南南東,13.8,68.6,0,0,0,0
60,2022-04-11T00:59:00,0.5,南南東,1.4,南南東,13.9,68.2,0,0,0,0
61,2022-04-11T01:00:00,0.5,南南東,1.3,南,13.9,67.9,0,0,0,0
62,2022-04-11T01:01:00,0.5,南南東,1.3,南,13.9,67.9,0,0,0,0
63,2022-04-11T01:02:00,0.5,南東,1.3,南,13.9,67.7,0,0,0,0
64,2022-04-11T01:03:00,0.5,南東,0.9,南南東,13.9,67.7,0,0,0,0
65,2022-04-11T01:04:00,0.4,南東,0.8,南,13.9,67.8,0,0,0,0
66,2022-04-11T01:05:00,0.4,南東,0.7,東南東,13.9,67.8,0,0,0,0
67,2022-04-11T01:06:00,0.4,南東,0.7,東南東,13.9,67.3,0,0,0,0
68,2022-04-11T01:07:00,0.4,南東,0.9,南南東,13.8,67,0,0,0,0
69,2022-04-11T01:08:00,0.4,南東,0.9,南南東,13.8,67.2,0,0,0,0
70,2022-04-11T01:09:00,0.4,南東,0.9,南南東,13.8,67.3,0,0,0,0
71,2022-04-11T01:10:00,0.4,南東,0.9,南南東,13.7,67.3,0,0,0,0
72,2022-04-11T01:11:00,0.3,南東,0.9,南南東,13.7,67.6,0,0,0,0
73,2022-04-11T01:12:00,0.3,南南東,0.9,南南東,13.8,68,0,0,0,0
74,2022-04-11T01:13:00,0.3,南南東,1.1,南南東,13.8,68,0,0,0,0
75,2022-04-11T01:14:00,0.4,南南東,1.2,南南東,13.6,67.4,0,0,0,0
76,2022-04-11T01:15:00,0.5,南南東,1.3,南東,13.6,68.1,0,0,0,0
77,2022-04-11T01:16:00,0.6,南南東,1.5,東,13.7,67.7,0,0,0,0
78,2022-04-11T01:17:00,0.7,南東,1.6,東北東,13.7,67.6,0,0,0,0
79,2022-04-11T01:18:00,0.8,南東,1.6,東北東,13.7,67.6,0,0,0,0
80,2022-04-11T01:19:00,0.8,東南東,1.8,東北東,13.7,67.1,0,0,0,0
81,2022-04-11T01:20:00,0.9,東南東,1.8,東北東,13.8,66.8,0,0,0,0
82,2022-04-11T01:21:00,0.9,東,1.8,東北東,13.7,67.6,0,0,0,0
83,2022-04-11T01:22:00,1,東,1.8,東北東,13.6,68.5,0,0,0,0
84,2022-04-11T01:23:00,1,東,1.8,東北東,13.6,68.3,0,0,0,0
85,2022-04-11T01:24:00,1.1,東北東,1.8,東北東,13.6,68.4,0,0,0,0
86,2022-04-11T01:25:00,1.1,東北東,1.8,東北東,13.6,67.9,0,0,0,0
87,2022-04-11T01:26:00,1.1,東北東,1.8,東北東,13.6,67.4,0,0,0,0
88,2022-04-11T01:27:00,1,東北東,1.8,東北東,13.6,67.6,0,0,0,0
89,2022-04-11T01:28:00,1,東北東,1.8,東北東,13.7,67.7,0,0,0,0
90,2022-04-11T01:29:00,1,東北東,1.6,東,13.8,66.7,0,0,0,0
91,2022-04-11T01:30:00,0.9,東,1.6,東,13.7,66,0,0,0,0
92,2022-04-11T01:31:00,0.9,東,1.6,東,13.5,66.7,0,0,0,0
93,2022-04-11T01:32:00,1,東,1.6,東,13.5,66.9,0,0,0,0
94,2022-04-11T01:33:00,0.9,東南東,1.6,東,13.5,66.6,0,0,0,0
95,2022-04-11T01:34:00,0.9,南東,1.8,南南西,13.4,66.9,0,0,0,0
96,2022-04-11T01:35:00,0.9,南東,1.8,南南西,13.2,67.5,0,0,0,0
97,2022-04-11T01:36:00,0.9,南南東,1.8,南南西,13.2,68,0,0,0,0
98,2022-04-11T01:37:00,0.9,南南東,1.8,南南西,13.1,68.3,0,0,0,0
99,2022-04-11T01:38:00,0.9,南,1.8,南南西,13.1,68.6,0,0,0,0
100,2022-04-11T01:39:00,0.9,南,1.8,南南西,13,68.8,0,0,0,0
101,2022-04-11T01:40:00,0.9,南,1.8,南南西,13.1,69.1,0,0,0,0
102,2022-04-11T01:41:00,0.9,南南東,1.8,南南西,13.2,69.1,0,0,0,0
103,2022-04-11T01:42:00,0.9,南南東,1.8,南南西,13.3,68.7,0,0,0,0
104,2022-04-11T01:43:00,1,南東,1.8,南南西,13.4,68.5,0,0,0,0
105,2022-04-11T01:44:00,1,南東,1.7,北東,13.5,68.1,0,0,0,0
106,2022-04-11T01:45:00,1,東南東,1.7,北東,13.5,67.2,0,0,0,0
107,2022-04-11T01:46:00,1,東南東,1.7,北東,13.4,67.2,0,0,0,0
108,2022-04-11T01:47:00,1,東,1.7,北東,13.5,67.6,0,0,0,0
109,2022-04-11T01:48:00,1,東,1.7,北東,13.5,67.4,0,0,0,0
110,2022-04-11T01:49:00,1.1,東,1.7,北東,13.6,66.9,0,0,0,0
111,2022-04-11T01:50:00,1.1,東北東,1.7,北東,13.7,66,0,0,0,0
112,2022-04-11T01:51:00,1.1,東,1.7,北東,13.6,65.6,0,0,0,0
113,2022-04-11T01:52:00,1,東,1.7,北東,13.5,66,0,0,0,0
114,2022-04-11T01:53:00,1,東,1.7,北東,13.6,66.1,0,0,0,0
115,2022-04-11T01:54:00,0.9,東南東,1.6,東,13.6,65.6,0,0,0,0
116,2022-04-11T01:55:00,0.9,東南東,1.6,東,13.8,65.4,0,0,0,0
117,2022-04-11T01:56:00,0.9,南東,1.6,東,13.6,65,0,0,0,0
118,2022-04-11T01:57:00,0.9,南東,1.6,東,13.5,65.2,0,0,0,0
119,2022-04-11T01:58:00,0.8,南南東,1.6,東,13.6,64.9,0,0,0,0
120,2022-04-11T01:59:00,0.7,南南東,1.6,東,13.5,64.8,0,0,0,0
121,2022-04-11T02:00:00,0.8,南南東,1.6,南東,13.5,65,0,0,0,0
122,2022-04-11T02:01:00,0.8,南南東,1.6,南東,13.8,64.4,0,0,0,0
123,2022-04-11T02:02:00,0.8,南南東,1.6,南東,13.7,63.9,0,0,0,0
124,2022-04-11T02:03:00,0.9,南南東,1.6,南東,13.6,63.8,0,0,0,0
125,2022-04-11T02:04:00,1,南南東,1.8,南東,13.6,64,0,0,0,0
126,2022-04-11T02:05:00,1,南東,1.8,南東,13.6,64.7,0,0,0,0
127,2022-04-11T02:06:00,1,南東,1.8,南東,13.5,65.1,0,0,0,0
128,2022-04-11T02:07:00,1,南東,1.8,南東,13.5,65.5,0,0,0,0
129,2022-04-11T02:08:00,1,南東,1.8,南東,13.7,65,0,0,0,0
130,2022-04-11T02:09:00,1,南東,1.8,南東,13.9,64.6,0,0,0,0
131,2022-04-11T02:10:00,0.9,南東,1.8,南東,13.9,64.4,0,0,0,0
132,2022-04-11T02:11:00,0.8,東南東,1.8,南東,13.7,64.6,0,0,0,0
133,2022-04-11T02:12:00,0.7,東南東,1.8,南東,13.5,65.2,0,0,0,0
134,2022-04-11T02:13:00,0.7,東南東,1.8,南東,13.7,66,0,0,0,0
135,2022-04-11T02:14:00,0.6,東南東,1.4,東南東,13.6,65.8,0,0,0,0
136,2022-04-11T02:15:00,0.5,東南東,1.1,東南東,13.4,65.9,0,0,0,0
137,2022-04-11T02:16:00,0.5,南東,1.4,南南東,13.1,66.1,0,0,0,0
138,2022-04-11T02:17:00,0.5,南東,1.4,南南東,13,66.8,0,0,0,0
139,2022-04-11T02:18:00,0.5,南東,1.4,南南東,12.9,67.5,0,0,0,0
140,2022-04-11T02:19:00,0.5,南東,1.4,南南東,12.8,67.8,0,0,0,0
141,2022-04-11T02:20:00,0.6,南東,1.5,南東,12.9,68.4,0,0,0,0
142,2022-04-11T02:21:00,0.7,南南東,2,南東,13,68.4,0,0,0,0
143,2022-04-11T02:22:00,0.8,南南東,2,南東,13.1,68.3,0,0,0,0
144,2022-04-11T02:23:00,0.8,南南東,2,南東,13.2,68.4,0,0,0,0
145,2022-04-11T02:24:00,0.9,南南東,2,南東,13.2,67.9,0,0,0,0
146,2022-04-11T02:25:00,0.9,南東,2,南東,13.2,67.7,0,0,0,0
147,2022-04-11T02:26:00,0.8,南東,2,南東,13.1,67.7,0,0,0,0
148,2022-04-11T02:27:00,0.8,南東,2,南東,13.1,68,0,0,0,0
149,2022-04-11T02:28:00,0.9,東南東,2,南東,13.1,68.5,0,0,0,0
150,2022-04-11T02:29:00,0.9,東南東,2,南東,13.1,68.8,0,0,0,0
151,2022-04-11T02:30:00,0.9,東南東,2,南東,13.2,69,0,0,0,0
152,2022-04-11T02:31:00,0.8,東,1.8,南東,13.1,68.8,0,0,0,0
153,2022-04-11T02:32:00,0.7,東,1.3,東北東,13,68.7,0,0,0,0
154,2022-04-11T02:33:00,0.7,東,1.3,東北東,13.1,69.4,0,0,0,0
155,2022-04-11T02:34:00,0.7,東,1.4,東北東,13.2,69.9,0,0,0,0
156,2022-04-11T02:35:00,0.8,東北東,1.4,東北東,13.2,69.9,0,0,0,0
157,2022-04-11T02:36:00,0.8,東北東,1.4,東北東,13.2,69.5,0,0,0,0
158,2022-04-11T02:37:00,0.8,東,1.4,東北東,13.2,69.3,0,0,0,0
159,2022-04-11T02:38:00,0.8,東,1.4,東北東,13.1,69.1,0,0,0,0
160,2022-04-11T02:39:00,0.8,東,1.4,東北東,13,68.7,0,0,0,0
161,2022-04-11T02:40:00,0.7,東南東,1.4,東北東,13,68.9,0,0,0,0
162,2022-04-11T02:41:00,0.7,東南東,1.4,東北東,12.9,69.3,0,0,0,0
163,2022-04-11T02:42:00,0.7,東南東,1.4,東北東,13.1,70,0,0,0,0
164,2022-04-11T02:43:00,0.7,南東,1.4,東北東,12.9,69.1,0,0,0,0
165,2022-04-11T02:44:00,0.7,南東,1.6,南南東,12.6,68.8,0,0,0,0
166,2022-04-11T02:45:00,0.7,南南東,1.6,南南東,12.6,69.6,0,0,0,0
167,2022-04-11T02:46:00,0.7,南南東,1.6,南南東,12.4,69.6,0,0,0,0
168,2022-04-11T02:47:00,0.7,南,1.6,南南東,12.4,69.9,0,0,0,0
169,2022-04-11T02:48:00,0.6,南,1.6,南南東,12.4,70.4,0,0,0,0
170,2022-04-11T02:49:00,0.6,南,1.6,南南東,12.6,70.9,0,0,0,0
171,2022-04-11T02:50:00,0.6,南,1.6,南南東,12.5,70.4,0,0,0,0
172,2022-04-11T02:51:00,0.7,南,1.6,南南東,12.4,69.8,0,0,0,0
173,2022-04-11T02:52:00,0.7,南,1.6,南南東,12.4,70.3,0,0,0,0
174,2022-04-11T02:53:00,0.8,南,1.6,南南東,12.4,70.5,0,0,0,0
175,2022-04-11T02:54:00,0.7,南,1.5,南南西,12.5,70.9,0,0,0,0
176,2022-04-11T02:55:00,0.7,南南東,1.5,南南西,12.4,70.8,0,0,0,0
177,2022-04-11T02:56:00,0.7,南南東,1.5,南南西,12.5,71.4,0,0,0,0
178,2022-04-11T02:57:00,0.7,南東,1.5,南南西,12.6,71.5,0,0,0,0
179,2022-04-11T02:58:00,0.7,南東,1.5,南南西,12.6,71.3,0,0,0,0
180,2022-04-11T02:59:00,0.8,東南東,1.7,東北東,12.7,72.1,0,0,0,0
181,2022-04-11T03:00:00,0.9,東南東,1.8,東北東,12.6,72.1,0,0,0,0
182,2022-04-11T03:01:00,0.9,東,1.8,東北東,12.5,72.2,0,0,0,0
183,2022-04-11T03:02:00,1,東,1.8,東北東,12.5,72.9,0,0,0,0
184,2022-04-11T03:03:00,1,東,1.8,東北東,12.5,73.3,0,0,0,0
185,2022-04-11T03:04:00,1,東北東,1.8,東北東,12.5,73.6,0,0,0,0
186,2022-04-11T03:05:00,1,東北東,1.8,東北東,12.5,73.8,0,0,0,0
187,2022-04-11T03:06:00,1.1,東北東,1.8,東北東,12.5,74.4,0,0,0,0
188,2022-04-11T03:07:00,1.1,東北東,1.8,東北東,12.7,75.3,0,0,0,0
189,2022-04-11T03:08:00,1.1,東北東,2,東北東,12.8,75.1,0,0,0,0
190,2022-04-11T03:09:00,1.2,東,2.2,東,12.8,74.3,0,0,0,0
191,2022-04-11T03:10:00,1.2,東,2.2,東,12.7,73.9,0,0,0,0
192,2022-04-11T03:11:00,1.1,東,2.2,東,12.6,73.8,0,0,0,0
193,2022-04-11T03:12:00,1.1,東,2.2,東,12.5,74.1,0,0,0,0
194,2022-04-11T03:13:00,1.1,東,2.2,東,12.6,74.7,0,0,0,0
195,2022-04-11T03:14:00,1,東,2.2,東,12.4,73.6,0,0,0,0
196,2022-04-11T03:15:00,1,東,2.2,東,12.5,73.5,0,0,0,0
197,2022-04-11T03:16:00,1.1,東,2.2,東,12.6,74.8,0,0,0,0
198,2022-04-11T03:17:00,1.1,東,2.2,東,12.8,75.5,0,0,0,0
199,2022-04-11T03:18:00,1,東南東,2.2,東,12.8,75.2,0,0,0,0
200,2022-04-11T03:19:00,1,東南東,2.1,東,12.8,74.5,0,0,0,0
201,2022-04-11T03:20:00,0.9,東南東,1.7,東,12.9,74.8,0,0,0,0
202,2022-04-11T03:21:00,0.9,東南東,1.7,東,13,74.8,0,0,0,0
203,2022-04-11T03:22:00,0.9,東南東,1.7,東,12.9,74.1,0,0,0,0
204,2022-04-11T03:23:00,0.9,東南東,1.7,東,12.6,72.5,0,0,0,0
205,2022-04-11T03:24:00,0.8,東南東,1.7,東,12.5,73,0,0,0,0
206,2022-04-11T03:25:00,0.8,南東,1.7,東,12.4,72.4,0,0,0,0
207,2022-04-11T03:26:00,0.7,南東,1.6,東,12.3,72.2,0,0,0,0
208,2022-04-11T03:27:00,0.7,南南東,1.4,東南東,12.7,75,0,0,0,0
209,2022-04-11T03:28:00,0.7,南南東,1.4,東南東,12.8,75.1,0,0,0,0
210,2022-04-11T03:29:00,0.7,南東,1.5,東南東,12.8,75.4,0,0,0,0
211,2022-04-11T03:30:00,0.7,南東,1.5,東南東,12.7,75.2,0,0,0,0
212,2022-04-11T03:31:00,0.7,南東,1.5,東南東,12.7,75.2,0,0,0,0
213,2022-04-11T03:32:00,0.7,南東,1.5,東南東,12.6,75,0,0,0,0
214,2022-04-11T03:33:00,0.7,東南東,1.6,北東,12.5,75,0,0,0,0
215,2022-04-11T03:34:00,0.8,東南東,1.6,北東,12.5,76.3,0,0,0,0
216,2022-04-11T03:35:00,0.8,東,1.6,北東,12.4,76.9,0,0,0,0
217,2022-04-11T03:36:00,0.8,東,1.6,北東,12.4,77.3,0,0,0,0
218,2022-04-11T03:37:00,0.8,東,1.6,北東,12.5,77.5,0,0,0,0
219,2022-04-11T03:38:00,0.7,東,1.6,北東,12.5,77.5,0,0,0,0
220,2022-04-11T03:39:00,0.7,東,1.6,北東,12.3,76.2,0,0,0,0
221,2022-04-11T03:40:00,0.7,東,1.6,北東,12.1,75.1,0,0,0,0
222,2022-04-11T03:41:00,0.7,東,1.6,北東,12.1,75.6,0,0,0,0
223,2022-04-11T03:42:00,0.7,東南東,1.6,北東,12,75.8,0,0,0,0
224,2022-04-11T03:43:00,0.7,東南東,1.4,東北東,12.2,77.3,0,0,0,0
225,2022-04-11T03:44:00,0.6,南東,1.3,南,12.2,77.3,0,0,0,0
226,2022-04-11T03:45:00,0.7,南東,1.3,南,12.5,78.7,0,0,0,0
227,2022-04-11T03:46:00,0.7,南東,1.3,南,12.6,78.9,0,0,0,0
228,2022-04-11T03:47:00,0.7,南東,1.3,南,12.6,78.3,0,0,0,0
229,2022-04-11T03:48:00,0.7,南南東,1.4,南,12.6,78.2,0,0,0,0
230,2022-04-11T03:49:00,0.8,南南東,1.8,南,12.1,74.7,0,0,0,0
231,2022-04-11T03:50:00,0.8,南南東,1.9,南,11.8,74.2,0,0,0,0
232,2022-04-11T03:51:00,0.8,南南東,1.9,南,11.8,75.4,0,0,0,0
233,2022-04-11T03:52:00,0.9,南南東,1.9,南,12.3,78.8,0,0,0,0
234,2022-04-11T03:53:00,0.9,南南東,1.9,南,12.2,78.6,0,0,0,0
235,2022-04-11T03:54:00,1,南南東,1.9,南,11.9,76.2,0,0,0,0
236,2022-04-11T03:55:00,0.9,南南東,1.9,南,11.7,76,0,0,0,0
237,2022-04-11T03:56:00,0.9,南南東,1.9,南,11.7,76.4,0,0,0,0
238,2022-04-11T03:57:00,0.9,南,1.9,南,11.8,77.4,0,0,0,0
239,2022-04-11T03:58:00,0.9,南南東,1.9,南,11.9,78.1,0,0,0,0
240,2022-04-11T03:59:00,0.9,南南東,1.9,南,12,78.5,0,0,0,0
241,2022-04-11T04:00:00,0.8,南南東,1.6,南南東,12,78.3,0,0,0,0
242,2022-04-11T04:01:00,0.9,南南東,1.6,南南東,12.1,78.6,0,0,0,0
243,2022-04-11T04:02:00,0.9,南東,1.6,南南東,12.1,78.5,0,0,0,0
244,2022-04-11T04:03:00,0.8,南東,1.5,南南東,12.1,78.3,0,0,0,0
245,2022-04-11T04:04:00,0.8,東南東,1.5,南南東,12.1,78,0,0,0,0
246,2022-04-11T04:05:00,0.7,東南東,1.4,南南東,12.2,78.6,0,0,0,0
247,2022-04-11T04:06:00,0.7,東南東,1.4,南南東,12.4,80,0,0,0,0
248,2022-04-11T04:07:00,0.7,東南東,1.3,南南東,12.3,79.5,0,0,0,0
249,2022-04-11T04:08:00,0.7,東南東,1.3,南南東,12.1,77.8,0,0,0,0
250,2022-04-11T04:09:00,0.6,東南東,1.1,南南東,12.1,77.9,0,0,0,0
